HVN415 RKSI-VVNB

Flight info

Callsign HVN415
Flight time 4h 2m
Altitude 40000
Route BOPTA2A BOPTA Z51 BEDES Y711 PONIK A593 LAMEN/K0946F280 A593 AKARA/K0941S0840 A593 PUD/K0909S1220 A599 NXD W131 AKDIM A470 DUBGO W134 ELNEX A599 GYA R474 TEBAK/K0896F430 R474 NAKHA NAKHA3J
Aircraft A359/H-SDE2E3GHIJ3J4J5LM1ORWXY/LB1D1

Departure

Time 2026-05-07 14:22
Airport Incheon International Airport (RKSI)

Arrival

Time 2026-05-07 18:25
Airport Noi Bai International Airport (VVNB)
Time Latitude Longitude Altitude Speed Heading
2026-05-07 13:45 37.45739 126.44915 39 ft 0 kts 324°
2026-05-07 14:09 37.45726 126.44927 38 ft 3 kts 324°
2026-05-07 14:09 37.45712 126.44940 37 ft 3 kts 323°
2026-05-07 14:09 37.45696 126.44956 37 ft 3 kts 309°
2026-05-07 14:10 37.45687 126.44975 35 ft 3 kts 268°
2026-05-07 14:10 37.45692 126.44995 36 ft 3 kts 234°
2026-05-07 14:10 37.45704 126.45016 36 ft 3 kts 234°
2026-05-07 14:10 37.45707 126.45020 36 ft 0 kts 234°
2026-05-07 14:15 37.45698 126.45005 37 ft 5 kts 233°
2026-05-07 14:15 37.45673 126.44962 38 ft 7 kts 234°
2026-05-07 14:16 37.45624 126.44875 39 ft 18 kts 234°
2026-05-07 14:16 37.45546 126.44738 39 ft 20 kts 234°
2026-05-07 14:16 37.45466 126.44597 39 ft 16 kts 233°
2026-05-07 14:16 37.45389 126.44493 39 ft 13 kts 189°
2026-05-07 14:17 37.45311 126.44489 38 ft 12 kts 213°
2026-05-07 14:17 37.45254 126.44397 39 ft 14 kts 234°
2026-05-07 14:17 37.45190 126.44287 39 ft 17 kts 234°
2026-05-07 14:17 37.45120 126.44164 39 ft 15 kts 234°
2026-05-07 14:18 37.45085 126.44102 39 ft 9 kts 234°
2026-05-07 14:18 37.45042 126.44025 39 ft 12 kts 234°
2026-05-07 14:18 37.44981 126.44017 39 ft 10 kts 147°
2026-05-07 14:18 37.44915 126.44078 37 ft 13 kts 144°
2026-05-07 14:19 37.44831 126.44153 39 ft 14 kts 144°
2026-05-07 14:19 37.44745 126.44230 39 ft 14 kts 144°
2026-05-07 14:19 37.44654 126.44310 39 ft 17 kts 145°
2026-05-07 14:19 37.44612 126.44347 39 ft 0 kts 145°
2026-05-07 14:20 37.44585 126.44370 39 ft 8 kts 145°
2026-05-07 14:20 37.44530 126.44415 39 ft 11 kts 157°
2026-05-07 14:20 37.44468 126.44377 39 ft 11 kts 232°
2026-05-07 14:20 37.44413 126.44288 38 ft 14 kts 232°
2026-05-07 14:21 37.44372 126.44216 37 ft 8 kts 236°
2026-05-07 14:21 37.44365 126.44154 37 ft 8 kts 301°
2026-05-07 14:21 37.44412 126.44102 37 ft 13 kts 323°
2026-05-07 14:21 37.44663 126.43879 39 ft 80 kts 324°
2026-05-07 14:22 37.45301 126.43314 39 ft 142 kts 325°
2026-05-07 14:22 37.46230 126.42508 357 ft 170 kts 324°
2026-05-07 14:22 37.47142 126.41648 1342 ft 159 kts 319°
2026-05-07 14:22 37.47948 126.40603 1942 ft 177 kts 313°
2026-05-07 14:23 37.48770 126.39367 2577 ft 187 kts 313°
2026-05-07 14:23 37.49596 126.38092 3289 ft 190 kts 312°
2026-05-07 14:23 37.50282 126.36627 3863 ft 203 kts 293°
2026-05-07 14:23 37.50507 126.34807 4296 ft 225 kts 276°
2026-05-07 14:24 37.50549 126.32750 4771 ft 243 kts 274°
2026-05-07 14:24 37.50575 126.30591 5540 ft 248 kts 274°
2026-05-07 14:24 37.50609 126.28413 6460 ft 250 kts 273°
2026-05-07 14:24 37.50650 126.26212 7364 ft 252 kts 273°
2026-05-07 14:25 37.50696 126.24002 8292 ft 254 kts 274°
2026-05-07 14:25 37.50687 126.21764 9241 ft 258 kts 267°
2026-05-07 14:25 37.50213 126.19579 10188 ft 264 kts 247°
2026-05-07 14:25 37.49069 126.17676 10725 ft 289 kts 225°
2026-05-07 14:26 37.47218 126.16380 11105 ft 319 kts 206°
2026-05-07 14:26 37.45034 126.15445 11511 ft 342 kts 200°
2026-05-07 14:26 37.42602 126.15121 12158 ft 362 kts 182°
2026-05-07 14:26 37.40138 126.15847 12968 ft 378 kts 162°
2026-05-07 14:27 37.37916 126.17724 13772 ft 395 kts 141°
2026-05-07 14:27 37.36028 126.20309 14468 ft 404 kts 136°
2026-05-07 14:27 37.34190 126.23014 15124 ft 410 kts 136°
2026-05-07 14:27 37.32322 126.25750 15806 ft 414 kts 137°
2026-05-07 14:28 37.30425 126.28507 16554 ft 417 kts 138°
2026-05-07 14:28 37.28507 126.31264 17269 ft 421 kts 139°
2026-05-07 14:28 37.27226 126.33097 17745 ft 424 kts 140°
2026-05-07 14:28 37.25268 126.35895 18425 ft 428 kts 140°
2026-05-07 14:29 37.23288 126.38716 18988 ft 434 kts 140°
2026-05-07 14:29 37.21279 126.41566 19527 ft 439 kts 141°
2026-05-07 14:29 37.19031 126.44082 20061 ft 426 kts 157°
2026-05-07 14:29 37.16431 126.45700 20661 ft 413 kts 169°
2026-05-07 14:30 37.12852 126.47400 21487 ft 417 kts 171°
2026-05-07 14:30 37.11004 126.48260 21892 ft 421 kts 172°
2026-05-07 14:30 37.08241 126.49553 22519 ft 425 kts 172°
2026-05-07 14:30 37.05490 126.50847 23071 ft 430 kts 171°
2026-05-07 14:31 37.02665 126.52011 23623 ft 428 kts 176°
2026-05-07 14:31 37.00589 126.52719 23964 ft 429 kts 178°
2026-05-07 14:31 36.97691 126.53669 24511 ft 431 kts 178°
2026-05-07 14:31 36.94779 126.54621 25042 ft 434 kts 178°
2026-05-07 14:32 36.91847 126.55583 25570 ft 437 kts 178°
2026-05-07 14:32 36.88898 126.56552 26099 ft 439 kts 178°
2026-05-07 14:32 36.85929 126.57530 26608 ft 443 kts 178°
2026-05-07 14:32 36.82930 126.58515 27007 ft 448 kts 178°
2026-05-07 14:33 36.79898 126.59510 27471 ft 452 kts 178°
2026-05-07 14:33 36.76851 126.60513 28004 ft 454 kts 178°
2026-05-07 14:33 36.73788 126.61525 28539 ft 457 kts 178°
2026-05-07 14:33 36.70708 126.62550 29022 ft 460 kts 178°
2026-05-07 14:34 36.67602 126.63587 29466 ft 463 kts 178°
2026-05-07 14:34 36.64522 126.64617 29923 ft 466 kts 178°
2026-05-07 14:34 36.61384 126.65670 30248 ft 469 kts 177°
2026-05-07 14:34 36.58223 126.66731 30549 ft 473 kts 177°
2026-05-07 14:35 36.55037 126.67801 30923 ft 476 kts 176°
2026-05-07 14:35 36.51828 126.68879 31293 ft 478 kts 176°
2026-05-07 14:35 36.48612 126.69949 31638 ft 478 kts 178°
2026-05-07 14:35 36.45369 126.70726 31958 ft 469 kts 184°
2026-05-07 14:36 36.42154 126.70967 32270 ft 458 kts 192°
2026-05-07 14:36 36.39016 126.70638 32498 ft 449 kts 199°
2026-05-07 14:36 36.35988 126.69789 32802 ft 444 kts 204°
2026-05-07 14:36 36.33044 126.68727 33299 ft 439 kts 206°
2026-05-07 14:37 36.30153 126.67584 33790 ft 434 kts 207°
2026-05-07 14:37 36.24420 126.65232 34471 ft 433 kts 207°
2026-05-07 14:37 36.21560 126.64059 34686 ft 435 kts 207°
2026-05-07 14:38 36.18674 126.62890 34909 ft 438 kts 207°
2026-05-07 14:38 36.15770 126.61730 35268 ft 437 kts 206°
2026-05-07 14:38 36.12888 126.60592 35677 ft 436 kts 206°
2026-05-07 14:38 36.09999 126.59457 36108 ft 435 kts 207°
2026-05-07 14:39 36.07123 126.58327 36463 ft 435 kts 207°
2026-05-07 14:39 36.04274 126.57205 36642 ft 436 kts 207°
2026-05-07 14:39 36.01374 126.56061 36801 ft 439 kts 207°
2026-05-07 14:39 35.98467 126.54917 37104 ft 438 kts 207°
2026-05-07 14:40 35.95562 126.53777 37451 ft 438 kts 207°
2026-05-07 14:40 35.92652 126.52637 37787 ft 437 kts 207°
2026-05-07 14:40 35.89748 126.51500 38151 ft 436 kts 207°
2026-05-07 14:40 35.86859 126.50371 38337 ft 436 kts 207°
2026-05-07 14:41 35.83955 126.49229 38497 ft 438 kts 207°
2026-05-07 14:41 35.81050 126.48088 38742 ft 438 kts 207°
2026-05-07 14:41 35.78149 126.46955 38927 ft 438 kts 207°
2026-05-07 14:41 35.75357 126.45866 39120 ft 438 kts 207°
2026-05-07 14:42 35.72461 126.44739 39281 ft 439 kts 207°
2026-05-07 14:42 35.69536 126.43598 39339 ft 440 kts 206°
2026-05-07 14:42 35.63731 126.41333 39533 ft 444 kts 206°
2026-05-07 14:43 35.60788 126.40189 39709 ft 444 kts 206°
2026-05-07 14:43 35.57835 126.39043 39858 ft 444 kts 206°
2026-05-07 14:43 35.54882 126.37897 39983 ft 445 kts 206°
2026-05-07 14:43 35.51964 126.36764 39992 ft 446 kts 206°
2026-05-07 14:44 35.46047 126.34471 40021 ft 446 kts 206°
2026-05-07 14:44 35.40119 126.32177 40023 ft 446 kts 206°
2026-05-07 14:45 35.34199 126.29890 39977 ft 446 kts 206°
2026-05-07 14:45 35.28260 126.27596 40017 ft 447 kts 205°
2026-05-07 14:46 35.22319 126.25307 40026 ft 447 kts 205°
2026-05-07 14:46 35.16379 126.23024 40018 ft 448 kts 206°
2026-05-07 14:47 35.10472 126.20754 40019 ft 448 kts 206°
2026-05-07 14:47 35.04512 126.18468 40018 ft 448 kts 206°
2026-05-07 14:48 34.98558 126.16187 40011 ft 449 kts 206°
2026-05-07 14:48 34.92595 126.13906 40017 ft 449 kts 206°
2026-05-07 14:49 34.86637 126.11632 40018 ft 449 kts 206°
2026-05-07 14:49 34.80673 126.09357 40021 ft 450 kts 205°
2026-05-07 14:50 34.74700 126.07085 40015 ft 450 kts 205°
2026-05-07 14:50 34.68750 126.04823 40017 ft 451 kts 205°
2026-05-07 14:51 34.62760 126.02550 40017 ft 451 kts 205°
2026-05-07 14:51 34.56763 126.00278 40017 ft 452 kts 205°
2026-05-07 14:52 34.50752 125.98004 40018 ft 452 kts 205°
2026-05-07 14:52 34.44745 125.95735 40018 ft 452 kts 205°
2026-05-07 14:53 34.38735 125.93468 40016 ft 452 kts 205°
2026-05-07 14:53 34.32709 125.91197 40017 ft 453 kts 205°
2026-05-07 14:54 34.26694 125.88935 40018 ft 453 kts 205°
2026-05-07 14:54 34.20676 125.86675 40018 ft 453 kts 205°
2026-05-07 14:55 34.14683 125.84428 40020 ft 454 kts 205°
2026-05-07 14:55 34.08653 125.82170 40025 ft 454 kts 205°
2026-05-07 14:56 34.02614 125.79913 40012 ft 454 kts 205°
2026-05-07 14:56 33.96881 125.77773 40026 ft 455 kts 205°
2026-05-07 14:57 33.90852 125.75525 40030 ft 455 kts 205°
2026-05-07 14:57 33.84832 125.73285 40019 ft 456 kts 205°
2026-05-07 14:58 33.78763 125.71029 40032 ft 457 kts 205°
2026-05-07 14:58 33.72685 125.68773 40033 ft 457 kts 205°
2026-05-07 14:59 33.66598 125.66519 40002 ft 457 kts 205°
2026-05-07 14:59 33.60512 125.64267 40033 ft 458 kts 205°
2026-05-07 15:00 33.54419 125.62015 40033 ft 458 kts 205°
2026-05-07 15:00 33.48316 125.59764 40032 ft 458 kts 205°
2026-05-07 15:01 33.42208 125.57514 40031 ft 459 kts 205°
2026-05-07 15:01 33.36101 125.55268 40032 ft 460 kts 205°
2026-05-07 15:02 33.30019 125.53034 40029 ft 460 kts 205°
2026-05-07 15:02 33.23898 125.50790 40031 ft 460 kts 205°
2026-05-07 15:03 33.17784 125.48551 40031 ft 460 kts 205°
2026-05-07 15:03 33.11654 125.46309 40034 ft 460 kts 205°
2026-05-07 15:04 33.05522 125.44070 40028 ft 461 kts 205°
2026-05-07 15:04 32.99369 125.41826 40028 ft 462 kts 205°
2026-05-07 15:05 32.93223 125.39590 40026 ft 462 kts 205°
2026-05-07 15:05 32.87076 125.37355 40020 ft 462 kts 205°
2026-05-07 15:06 32.80916 125.35118 40023 ft 463 kts 205°
2026-05-07 15:06 32.74788 125.32897 40023 ft 463 kts 205°
2026-05-07 15:07 32.68623 125.30666 40001 ft 463 kts 205°
2026-05-07 15:07 32.62438 125.28431 40023 ft 465 kts 205°
2026-05-07 15:08 32.56251 125.26197 40020 ft 465 kts 205°
2026-05-07 15:08 32.50063 125.23968 40027 ft 465 kts 205°
2026-05-07 15:09 32.43870 125.21740 40020 ft 465 kts 205°
2026-05-07 15:09 32.37674 125.19513 40021 ft 465 kts 205°
2026-05-07 15:10 32.31478 125.17290 40023 ft 465 kts 205°
2026-05-07 15:10 32.25276 125.15067 40026 ft 466 kts 205°
2026-05-07 15:11 32.19046 125.12838 40028 ft 467 kts 205°
2026-05-07 15:11 32.12870 125.10631 40015 ft 467 kts 205°
2026-05-07 15:12 32.06648 125.08412 40019 ft 468 kts 205°
2026-05-07 15:12 32.00417 125.06191 40021 ft 468 kts 205°
2026-05-07 15:13 31.94181 125.03954 40021 ft 466 kts 207°
2026-05-07 15:13 31.89362 125.01375 39993 ft 451 kts 219°
2026-05-07 15:14 31.84623 124.96798 40021 ft 433 kts 235°
2026-05-07 15:14 31.81393 124.90984 40028 ft 420 kts 250°
2026-05-07 15:15 31.79477 124.84548 40031 ft 416 kts 258°
2026-05-07 15:15 31.78087 124.77950 40034 ft 415 kts 259°
2026-05-07 15:16 31.76751 124.71357 40789 ft 415 kts 259°
2026-05-07 15:16 31.76057 124.68051 39999 ft 418 kts 259°
2026-05-07 15:16 31.75345 124.64729 40023 ft 419 kts 259°
2026-05-07 15:17 31.73913 124.58174 40037 ft 416 kts 259°
2026-05-07 15:17 31.72467 124.51611 40042 ft 415 kts 259°
2026-05-07 15:18 31.71019 124.45043 40041 ft 415 kts 259°
2026-05-07 15:18 31.69573 124.38495 40042 ft 414 kts 259°
2026-05-07 15:19 31.68123 124.31941 40045 ft 414 kts 258°
2026-05-07 15:19 31.66670 124.25395 40034 ft 414 kts 259°
2026-05-07 15:20 31.65214 124.18846 40051 ft 415 kts 259°
2026-05-07 15:20 31.63762 124.12337 40048 ft 414 kts 259°
2026-05-07 15:21 31.62300 124.05799 40048 ft 414 kts 258°
2026-05-07 15:21 31.60834 123.99257 40050 ft 414 kts 258°
2026-05-07 15:22 31.59394 123.92714 40050 ft 413 kts 259°
2026-05-07 15:22 31.57975 123.86182 40050 ft 413 kts 259°
2026-05-07 15:23 31.56549 123.79651 40050 ft 413 kts 259°
2026-05-07 15:23 31.55126 123.73170 40050 ft 413 kts 259°
2026-05-07 15:24 31.53687 123.66645 40051 ft 413 kts 259°
2026-05-07 15:24 31.52245 123.60123 40055 ft 413 kts 259°
2026-05-07 15:25 31.50810 123.53649 40057 ft 412 kts 259°
2026-05-07 15:25 31.49388 123.47141 40063 ft 412 kts 260°
2026-05-07 15:26 31.48148 123.40588 40059 ft 411 kts 261°
2026-05-07 15:26 31.46950 123.34026 40060 ft 412 kts 261°
2026-05-07 15:27 31.45724 123.27469 40061 ft 412 kts 261°
2026-05-07 15:27 31.44473 123.20906 40064 ft 412 kts 260°
2026-05-07 15:28 31.43217 123.14358 40075 ft 412 kts 260°
2026-05-07 15:28 31.41967 123.07862 40067 ft 411 kts 260°
2026-05-07 15:29 31.40707 123.01327 40070 ft 411 kts 260°
2026-05-07 15:29 31.39444 122.94794 40067 ft 411 kts 260°
2026-05-07 15:30 31.38177 122.88260 40067 ft 411 kts 260°
2026-05-07 15:30 31.36907 122.81725 40073 ft 411 kts 260°
2026-05-07 15:31 31.35635 122.75201 40070 ft 411 kts 260°
2026-05-07 15:31 31.34396 122.68711 40076 ft 411 kts 261°
2026-05-07 15:32 31.33159 122.62183 40073 ft 411 kts 261°
2026-05-07 15:32 31.31913 122.55651 40074 ft 411 kts 260°
2026-05-07 15:33 31.30661 122.49127 40084 ft 411 kts 260°
2026-05-07 15:33 31.29404 122.42604 40084 ft 410 kts 260°
2026-05-07 15:34 31.28178 122.36127 40081 ft 411 kts 261°
2026-05-07 15:34 31.26957 122.29602 40088 ft 411 kts 261°
2026-05-07 15:35 31.25728 122.23075 40091 ft 411 kts 260°
2026-05-07 15:35 31.24492 122.16555 40093 ft 411 kts 260°
2026-05-07 15:36 31.23253 122.10044 40088 ft 411 kts 260°
2026-05-07 15:36 31.22009 122.03528 40096 ft 411 kts 260°
2026-05-07 15:37 31.20763 121.97018 40087 ft 411 kts 260°
2026-05-07 15:37 31.19513 121.90503 40065 ft 411 kts 260°
2026-05-07 15:38 31.18267 121.84033 40101 ft 411 kts 260°
2026-05-07 15:38 31.17125 121.77494 40101 ft 410 kts 264°
2026-05-07 15:39 31.16350 121.70901 40103 ft 409 kts 265°
2026-05-07 15:39 31.15635 121.64298 40107 ft 409 kts 265°
2026-05-07 15:40 31.14925 121.57702 40099 ft 409 kts 265°
2026-05-07 15:40 31.14212 121.51151 40109 ft 409 kts 265°
2026-05-07 15:41 31.13487 121.44561 40101 ft 409 kts 265°
2026-05-07 15:41 31.12758 121.37972 40104 ft 409 kts 265°
2026-05-07 15:42 31.11598 121.31452 40071 ft 412 kts 258°
2026-05-07 15:42 31.10154 121.25672 40103 ft 413 kts 257°
2026-05-07 15:43 31.08471 121.19265 40104 ft 412 kts 256°
2026-05-07 15:43 31.06785 121.12873 40104 ft 412 kts 257°
2026-05-07 15:44 31.05205 121.06458 40110 ft 411 kts 258°
2026-05-07 15:44 31.03664 121.00029 40113 ft 411 kts 258°
2026-05-07 15:45 31.02107 120.93601 40122 ft 411 kts 258°
2026-05-07 15:45 31.00549 120.87236 40120 ft 411 kts 257°
2026-05-07 15:46 30.98183 120.77626 40116 ft 411 kts 257°
2026-05-07 15:47 30.96598 120.71218 40118 ft 411 kts 257°
2026-05-07 15:47 30.95028 120.64805 40118 ft 411 kts 257°
2026-05-07 15:48 30.93458 120.58388 40123 ft 411 kts 257°
2026-05-07 15:48 30.91881 120.51973 40121 ft 412 kts 257°
2026-05-07 15:49 30.89683 120.45783 40123 ft 419 kts 245°
2026-05-07 15:49 30.86100 120.40371 40116 ft 433 kts 231°
2026-05-07 15:50 30.81312 120.35959 40122 ft 442 kts 224°
2026-05-07 15:50 30.76258 120.31846 40121 ft 443 kts 223°
2026-05-07 15:51 30.71188 120.27765 40126 ft 443 kts 223°
2026-05-07 15:51 30.66164 120.23674 40105 ft 443 kts 224°
2026-05-07 15:52 30.61125 120.19547 40124 ft 443 kts 224°
2026-05-07 15:52 30.56085 120.15417 40124 ft 443 kts 224°
2026-05-07 15:53 30.51039 120.11291 40140 ft 443 kts 224°
2026-05-07 15:53 30.45995 120.07174 40100 ft 443 kts 224°
2026-05-07 15:54 30.40786 120.03342 40132 ft 449 kts 219°
2026-05-07 15:54 30.35376 119.99698 40116 ft 450 kts 219°
2026-05-07 15:55 30.29943 119.96097 40127 ft 450 kts 219°
2026-05-07 15:55 30.24510 119.92497 40113 ft 450 kts 219°
2026-05-07 15:56 30.19079 119.88893 40126 ft 450 kts 219°
2026-05-07 15:56 30.13641 119.85281 40129 ft 450 kts 219°
2026-05-07 15:57 30.08238 119.81703 40118 ft 450 kts 219°
2026-05-07 15:57 30.02800 119.78112 40115 ft 450 kts 219°
2026-05-07 15:58 29.97380 119.74468 40119 ft 450 kts 219°
2026-05-07 15:58 29.91969 119.70810 40111 ft 450 kts 219°
2026-05-07 15:59 29.86588 119.67189 40108 ft 451 kts 219°
2026-05-07 15:59 29.81269 119.63409 40102 ft 447 kts 223°
2026-05-07 16:00 29.76166 119.59311 40105 ft 446 kts 224°
2026-05-07 16:00 29.71073 119.55207 40093 ft 447 kts 223°
2026-05-07 16:01 29.65967 119.51180 40096 ft 447 kts 223°
2026-05-07 16:01 29.61344 119.46603 40063 ft 434 kts 233°
2026-05-07 16:02 29.57889 119.42359 40079 ft 434 kts 235°
2026-05-07 16:02 29.53877 119.37235 40079 ft 433 kts 235°
2026-05-07 16:03 29.49850 119.32071 40077 ft 434 kts 235°
2026-05-07 16:03 29.45816 119.26917 40065 ft 433 kts 235°
2026-05-07 16:04 29.41771 119.21776 40076 ft 434 kts 235°
2026-05-07 16:04 29.37716 119.16625 40067 ft 435 kts 235°
2026-05-07 16:05 29.33676 119.11513 40081 ft 436 kts 235°
2026-05-07 16:05 29.29601 119.06358 40067 ft 436 kts 235°
2026-05-07 16:06 29.25526 119.01230 40071 ft 435 kts 235°
2026-05-07 16:06 29.21444 118.96112 40068 ft 436 kts 235°
2026-05-07 16:07 29.17364 118.90971 40067 ft 437 kts 235°
2026-05-07 16:07 29.13266 118.85815 40057 ft 437 kts 235°
2026-05-07 16:08 29.09162 118.80662 40065 ft 438 kts 234°
2026-05-07 16:08 29.05066 118.75523 40050 ft 437 kts 235°
2026-05-07 16:09 29.00978 118.70411 40055 ft 439 kts 235°
2026-05-07 16:09 28.96841 118.65255 40068 ft 440 kts 235°
2026-05-07 16:10 28.92709 118.60117 40056 ft 438 kts 235°
2026-05-07 16:10 28.88612 118.55021 40051 ft 438 kts 235°
2026-05-07 16:11 28.84499 118.49900 40053 ft 438 kts 234°
2026-05-07 16:11 28.80366 118.44752 40042 ft 441 kts 235°
2026-05-07 16:12 28.76211 118.39592 40039 ft 441 kts 234°
2026-05-07 16:12 28.72050 118.34453 40039 ft 441 kts 234°
2026-05-07 16:13 28.67896 118.29320 40037 ft 440 kts 234°
2026-05-07 16:13 28.63769 118.24220 40017 ft 440 kts 234°
2026-05-07 16:14 28.59602 118.19072 40034 ft 442 kts 234°
2026-05-07 16:14 28.55423 118.13918 40033 ft 443 kts 234°
2026-05-07 16:15 28.51240 118.08769 40033 ft 443 kts 234°
2026-05-07 16:15 28.47052 118.03621 40030 ft 443 kts 234°
2026-05-07 16:16 28.42865 117.98475 40025 ft 443 kts 234°
2026-05-07 16:16 28.38641 117.93350 40026 ft 446 kts 233°
2026-05-07 16:17 28.34352 117.88310 40030 ft 447 kts 233°
2026-05-07 16:17 28.30029 117.83246 40027 ft 447 kts 233°
2026-05-07 16:18 28.25710 117.78170 40030 ft 446 kts 233°
2026-05-07 16:18 28.21401 117.73097 40033 ft 446 kts 233°
2026-05-07 16:19 28.17092 117.68028 40036 ft 446 kts 233°
2026-05-07 16:19 28.12777 117.62967 40032 ft 447 kts 233°
2026-05-07 16:20 28.08487 117.57936 40027 ft 447 kts 233°
2026-05-07 16:20 28.04164 117.52867 40023 ft 446 kts 233°
2026-05-07 16:21 27.99837 117.47809 40028 ft 449 kts 233°
2026-05-07 16:21 27.95487 117.42720 40031 ft 449 kts 233°
2026-05-07 16:22 27.91143 117.37642 40029 ft 450 kts 233°
2026-05-07 16:22 27.86797 117.32567 40022 ft 449 kts 233°
2026-05-07 16:23 27.82477 117.27525 40024 ft 449 kts 233°
2026-05-07 16:23 27.78120 117.22452 40023 ft 451 kts 233°
2026-05-07 16:24 27.73728 117.17358 40020 ft 453 kts 233°
2026-05-07 16:24 27.69331 117.12272 40009 ft 451 kts 233°
2026-05-07 16:25 27.64956 117.07200 39999 ft 451 kts 233°
2026-05-07 16:25 27.60596 117.02159 40023 ft 451 kts 233°
2026-05-07 16:26 27.56207 116.97080 40012 ft 453 kts 233°
2026-05-07 16:26 27.51796 116.91978 40016 ft 455 kts 233°
2026-05-07 16:27 27.47399 116.86866 40017 ft 454 kts 233°
2026-05-07 16:27 27.43031 116.81736 40019 ft 453 kts 233°
2026-05-07 16:28 27.38666 116.76619 40019 ft 453 kts 233°
2026-05-07 16:28 27.34284 116.71498 40019 ft 455 kts 233°
2026-05-07 16:29 27.29883 116.66366 40013 ft 456 kts 233°
2026-05-07 16:29 27.25506 116.61275 40018 ft 456 kts 233°
2026-05-07 16:30 27.21094 116.56145 40005 ft 456 kts 233°
2026-05-07 16:30 27.16737 116.50982 40012 ft 454 kts 234°
2026-05-07 16:31 27.12448 116.45736 40010 ft 456 kts 234°
2026-05-07 16:31 27.08145 116.40485 40011 ft 457 kts 234°
2026-05-07 16:32 27.03844 116.35276 40010 ft 457 kts 234°
2026-05-07 16:32 26.99511 116.30048 40010 ft 457 kts 234°
2026-05-07 16:33 26.95176 116.24824 40007 ft 458 kts 234°
2026-05-07 16:33 26.90827 116.19590 40007 ft 459 kts 233°
2026-05-07 16:34 26.86497 116.14327 40007 ft 459 kts 234°
2026-05-07 16:34 26.82197 116.09077 40004 ft 459 kts 234°
2026-05-07 16:35 26.77880 116.03820 40000 ft 459 kts 234°
2026-05-07 16:35 26.73552 115.98564 40003 ft 459 kts 234°
2026-05-07 16:36 26.69216 115.93305 40001 ft 460 kts 234°
2026-05-07 16:36 26.64874 115.88049 40003 ft 461 kts 233°
2026-05-07 16:37 26.60522 115.82787 40000 ft 461 kts 233°
2026-05-07 16:37 26.56193 115.77560 40003 ft 461 kts 233°
2026-05-07 16:38 26.51838 115.72305 39980 ft 461 kts 234°
2026-05-07 16:38 26.47483 115.67056 39992 ft 461 kts 233°
2026-05-07 16:39 26.43123 115.61808 39995 ft 461 kts 233°
2026-05-07 16:39 26.38754 115.56555 39998 ft 461 kts 233°
2026-05-07 16:40 26.34391 115.51315 39994 ft 461 kts 233°
2026-05-07 16:40 26.30024 115.46078 39994 ft 461 kts 233°
2026-05-07 16:41 26.25650 115.40837 39984 ft 461 kts 233°
2026-05-07 16:41 26.21310 115.35646 39995 ft 460 kts 233°
2026-05-07 16:42 26.16939 115.30423 39987 ft 460 kts 233°
2026-05-07 16:42 26.12563 115.25199 39998 ft 461 kts 233°
2026-05-07 16:43 26.08216 115.20017 39993 ft 461 kts 232°
2026-05-07 16:43 26.03844 115.14810 39990 ft 460 kts 232°
2026-05-07 16:44 25.99472 115.09610 39990 ft 460 kts 232°
2026-05-07 16:44 25.95095 115.04410 39990 ft 461 kts 232°
2026-05-07 16:45 25.90711 114.99207 39997 ft 461 kts 232°
2026-05-07 16:45 25.86331 114.94016 39995 ft 460 kts 232°
2026-05-07 16:46 25.81931 114.88842 39979 ft 462 kts 230°
2026-05-07 16:46 25.76974 114.84206 39994 ft 467 kts 224°
2026-05-07 16:47 25.71852 114.79824 39990 ft 468 kts 223°
2026-05-07 16:47 25.66662 114.75455 39991 ft 468 kts 223°
2026-05-07 16:48 25.61472 114.71080 39994 ft 468 kts 223°
2026-05-07 16:48 25.56287 114.66697 39982 ft 469 kts 223°
2026-05-07 16:49 25.51101 114.62315 39994 ft 469 kts 223°
2026-05-07 16:49 25.45903 114.57928 39992 ft 470 kts 223°
2026-05-07 16:50 25.40705 114.53546 39987 ft 470 kts 223°
2026-05-07 16:50 25.35502 114.49165 39995 ft 470 kts 223°
2026-05-07 16:51 25.30298 114.44783 39986 ft 470 kts 223°
2026-05-07 16:51 25.25974 114.41150 39987 ft 471 kts 223°
2026-05-07 16:52 25.20753 114.36769 39989 ft 471 kts 223°
2026-05-07 16:52 25.14687 114.31683 39988 ft 471 kts 223°
2026-05-07 16:53 25.10044 114.28372 39990 ft 479 kts 212°
2026-05-07 16:53 25.03657 114.26016 39984 ft 490 kts 199°
2026-05-07 16:54 24.96996 114.24498 39987 ft 492 kts 196°
2026-05-07 16:54 24.90269 114.23099 39983 ft 492 kts 196°
2026-05-07 16:55 24.83547 114.21678 39980 ft 492 kts 197°
2026-05-07 16:55 24.76822 114.20230 39981 ft 492 kts 197°
2026-05-07 16:56 24.70114 114.18769 39979 ft 491 kts 197°
2026-05-07 16:56 24.60054 114.16581 39979 ft 491 kts 197°
2026-05-07 16:57 24.53388 114.15141 39974 ft 491 kts 197°
2026-05-07 16:57 24.46691 114.13694 39971 ft 490 kts 197°
2026-05-07 16:58 24.40014 114.12253 39969 ft 489 kts 197°
2026-05-07 16:58 24.33603 114.10045 39967 ft 476 kts 212°
2026-05-07 16:59 24.27840 114.06552 39962 ft 472 kts 216°
2026-05-07 16:59 24.22306 114.02767 39963 ft 471 kts 218°
2026-05-07 17:00 24.16806 113.98850 39965 ft 471 kts 218°
2026-05-07 17:00 24.11292 113.94966 39964 ft 471 kts 218°
2026-05-07 17:01 24.05747 113.91114 39964 ft 471 kts 218°
2026-05-07 17:01 24.00212 113.87271 39959 ft 471 kts 218°
2026-05-07 17:02 23.94695 113.83442 39961 ft 474 kts 217°
2026-05-07 17:02 23.89106 113.79569 39962 ft 475 kts 217°
2026-05-07 17:03 23.83518 113.75704 39964 ft 476 kts 217°
2026-05-07 17:03 23.77913 113.71831 39962 ft 477 kts 217°
2026-05-07 17:04 23.72295 113.67951 39965 ft 478 kts 217°
2026-05-07 17:04 23.66702 113.64092 39960 ft 478 kts 217°
2026-05-07 17:05 23.61073 113.60214 39954 ft 478 kts 217°
2026-05-07 17:05 23.55442 113.56329 39966 ft 478 kts 217°
2026-05-07 17:06 23.49852 113.52390 39953 ft 478 kts 218°
2026-05-07 17:06 23.44306 113.48474 39947 ft 478 kts 218°
2026-05-07 17:07 23.38717 113.44545 39953 ft 478 kts 218°
2026-05-07 17:07 23.33124 113.40624 39935 ft 478 kts 217°
2026-05-07 17:08 23.27530 113.36711 39939 ft 477 kts 217°
2026-05-07 17:08 23.21962 113.32818 39943 ft 477 kts 217°
2026-05-07 17:09 23.16405 113.28934 39949 ft 479 kts 217°
2026-05-07 17:09 23.10872 113.24871 39955 ft 477 kts 223°
2026-05-07 17:10 23.06728 113.20145 39948 ft 468 kts 238°
2026-05-07 17:10 23.03869 113.13897 39953 ft 460 kts 256°
2026-05-07 17:11 23.02981 113.07087 39936 ft 454 kts 273°
2026-05-07 17:11 23.03377 113.00260 39945 ft 453 kts 276°
2026-05-07 17:12 23.03910 112.93445 39945 ft 453 kts 276°
2026-05-07 17:12 23.04426 112.86632 39951 ft 453 kts 275°
2026-05-07 17:13 23.04904 112.79847 39951 ft 453 kts 275°
2026-05-07 17:13 23.05369 112.73030 39946 ft 452 kts 275°
2026-05-07 17:14 23.05827 112.66236 39938 ft 451 kts 275°
2026-05-07 17:14 23.06284 112.59439 39949 ft 451 kts 275°
2026-05-07 17:15 23.06739 112.52641 39955 ft 451 kts 275°
2026-05-07 17:15 23.06675 112.45885 39947 ft 452 kts 267°
2026-05-07 17:16 23.06045 112.39098 39945 ft 452 kts 265°
2026-05-07 17:16 23.05320 112.32326 39960 ft 451 kts 265°
2026-05-07 17:17 23.04588 112.25551 39947 ft 453 kts 265°
2026-05-07 17:17 23.03863 112.18746 39958 ft 453 kts 265°
2026-05-07 17:18 23.03141 112.11932 39954 ft 454 kts 265°
2026-05-07 17:18 23.02418 112.05128 39956 ft 453 kts 265°
2026-05-07 17:19 23.01696 111.98374 39959 ft 453 kts 265°
2026-05-07 17:19 23.00967 111.91577 39960 ft 453 kts 265°
2026-05-07 17:20 23.00233 111.84767 39958 ft 453 kts 265°
2026-05-07 17:20 22.99497 111.77967 39958 ft 453 kts 265°
2026-05-07 17:21 22.98760 111.71191 39954 ft 452 kts 265°
2026-05-07 17:21 22.98021 111.64413 39963 ft 451 kts 265°
2026-05-07 17:22 22.97281 111.57655 39957 ft 451 kts 265°
2026-05-07 17:22 22.96539 111.50943 39956 ft 451 kts 265°
2026-05-07 17:23 22.95776 111.44176 39961 ft 451 kts 265°
2026-05-07 17:23 22.95011 111.37421 39960 ft 451 kts 265°
2026-05-07 17:24 22.94243 111.30649 39959 ft 451 kts 265°
2026-05-07 17:24 22.93478 111.23899 39955 ft 451 kts 265°
2026-05-07 17:25 22.92712 111.17159 39959 ft 451 kts 264°
2026-05-07 17:25 22.91945 111.10442 39961 ft 452 kts 265°
2026-05-07 17:26 22.91165 111.03639 39965 ft 455 kts 264°
2026-05-07 17:26 22.90377 110.96802 39961 ft 456 kts 264°
2026-05-07 17:27 22.89592 110.90014 39964 ft 456 kts 264°
2026-05-07 17:27 22.88802 110.83180 39964 ft 456 kts 264°
2026-05-07 17:28 22.88005 110.76356 39957 ft 455 kts 264°
2026-05-07 17:28 22.87208 110.69553 39959 ft 454 kts 264°
2026-05-07 17:29 22.86416 110.62806 39961 ft 454 kts 264°
2026-05-07 17:29 22.85616 110.56020 39962 ft 454 kts 264°
2026-05-07 17:30 22.84850 110.49234 39961 ft 453 kts 265°
2026-05-07 17:30 22.84124 110.42426 39961 ft 452 kts 264°
2026-05-07 17:31 22.83397 110.35664 39957 ft 451 kts 264°
2026-05-07 17:31 22.82664 110.28939 39960 ft 451 kts 265°
2026-05-07 17:32 22.81919 110.22172 39961 ft 452 kts 264°
2026-05-07 17:32 22.81299 110.16546 39959 ft 452 kts 264°
2026-05-07 17:33 22.80428 110.08678 39953 ft 451 kts 264°
2026-05-07 17:33 22.79677 110.01926 39955 ft 451 kts 264°
2026-05-07 17:34 22.78922 109.95167 39955 ft 451 kts 264°
2026-05-07 17:34 22.78166 109.88420 39947 ft 451 kts 264°
2026-05-07 17:35 22.77405 109.81652 39950 ft 453 kts 264°
2026-05-07 17:35 22.76639 109.74856 39950 ft 453 kts 264°
2026-05-07 17:36 22.75883 109.68186 39948 ft 453 kts 264°
2026-05-07 17:36 22.75117 109.61457 39953 ft 453 kts 264°
2026-05-07 17:37 22.74343 109.54694 39948 ft 452 kts 264°
2026-05-07 17:37 22.73567 109.47930 39949 ft 452 kts 264°
2026-05-07 17:38 22.72790 109.41166 39949 ft 453 kts 264°
2026-05-07 17:38 22.72013 109.34388 39945 ft 453 kts 264°
2026-05-07 17:39 22.71235 109.27614 39948 ft 453 kts 264°
2026-05-07 17:39 22.70466 109.20837 39950 ft 453 kts 264°
2026-05-07 17:40 22.69836 109.15208 39950 ft 453 kts 264°
2026-05-07 17:40 22.69082 109.08430 39949 ft 453 kts 264°
2026-05-07 17:41 22.68342 109.01645 39947 ft 453 kts 264°
2026-05-07 17:41 22.67600 108.94861 39947 ft 453 kts 264°
2026-05-07 17:42 22.66857 108.88121 39949 ft 453 kts 264°
2026-05-07 17:42 22.66106 108.81343 39950 ft 453 kts 264°
2026-05-07 17:43 22.65352 108.74562 39946 ft 453 kts 264°
2026-05-07 17:43 22.64594 108.67777 39946 ft 454 kts 264°
2026-05-07 17:44 22.63833 108.60992 39949 ft 454 kts 264°
2026-05-07 17:44 22.63070 108.54211 39953 ft 456 kts 264°
2026-05-07 17:45 22.62299 108.47380 39953 ft 457 kts 264°
2026-05-07 17:45 22.61530 108.40600 39955 ft 457 kts 263°
2026-05-07 17:46 22.60753 108.33777 39962 ft 457 kts 263°
2026-05-07 17:46 22.59971 108.26939 39968 ft 457 kts 263°
2026-05-07 17:47 22.59188 108.20113 39964 ft 457 kts 263°
2026-05-07 17:47 22.58401 108.13335 39967 ft 457 kts 262°
2026-05-07 17:48 22.57277 108.06566 39965 ft 457 kts 259°
2026-05-07 17:48 22.56040 108.00086 39961 ft 457 kts 259°
2026-05-07 17:49 22.54789 107.93343 39959 ft 457 kts 259°
2026-05-07 17:49 22.53585 107.86611 39954 ft 457 kts 260°
2026-05-07 17:50 22.52389 107.79854 39952 ft 457 kts 260°
2026-05-07 17:50 22.51200 107.73154 39951 ft 457 kts 259°
2026-05-07 17:51 22.49996 107.66404 39952 ft 456 kts 259°
2026-05-07 17:51 22.48791 107.59664 39956 ft 456 kts 259°
2026-05-07 17:52 22.47585 107.52942 39960 ft 456 kts 259°
2026-05-07 17:52 22.46375 107.46207 39956 ft 456 kts 259°
2026-05-07 17:53 22.45162 107.39472 39956 ft 460 kts 259°
2026-05-07 17:53 22.43932 107.32665 39957 ft 461 kts 259°
2026-05-07 17:54 22.42709 107.25915 39961 ft 460 kts 259°
2026-05-07 17:54 22.41481 107.19125 39958 ft 460 kts 259°
2026-05-07 17:55 22.40267 107.12334 39956 ft 460 kts 259°
2026-05-07 17:55 22.39049 107.05541 39959 ft 460 kts 259°
2026-05-07 17:56 22.37837 106.98818 39757 ft 454 kts 259°
2026-05-07 17:56 22.37231 106.95466 39029 ft 456 kts 259°
2026-05-07 17:56 22.36552 106.92104 38139 ft 460 kts 255°
2026-05-07 17:57 22.35492 106.88821 37190 ft 465 kts 247°
2026-05-07 17:57 22.34532 106.86740 36562 ft 469 kts 241°
2026-05-07 17:57 22.31945 106.82905 35296 ft 477 kts 229°
2026-05-07 17:57 22.29658 106.80283 34356 ft 483 kts 227°
2026-05-07 17:58 22.27264 106.77701 33326 ft 488 kts 226°
2026-05-07 17:58 22.24812 106.75131 32286 ft 492 kts 226°
2026-05-07 17:58 22.22348 106.72564 31262 ft 496 kts 226°
2026-05-07 17:58 22.19892 106.70000 30185 ft 501 kts 226°
2026-05-07 17:59 22.17287 106.67410 29030 ft 504 kts 221°
2026-05-07 17:59 22.14619 106.65036 28113 ft 502 kts 221°
2026-05-07 17:59 22.11937 106.62677 27072 ft 489 kts 221°
2026-05-07 17:59 22.09334 106.60396 26188 ft 477 kts 220°
2026-05-07 18:00 22.06761 106.58145 25454 ft 475 kts 220°
2026-05-07 18:00 22.04205 106.55913 24739 ft 472 kts 220°
2026-05-07 18:00 22.01659 106.53693 24019 ft 469 kts 220°
2026-05-07 18:00 21.99136 106.51494 23250 ft 466 kts 220°
2026-05-07 18:01 21.96628 106.49311 22475 ft 461 kts 220°
2026-05-07 18:01 21.94183 106.47099 21761 ft 455 kts 223°
2026-05-07 18:01 21.91840 106.44827 21048 ft 450 kts 223°
2026-05-07 18:01 21.89526 106.42578 20335 ft 446 kts 223°
2026-05-07 18:02 21.84938 106.38160 18893 ft 439 kts 222°
2026-05-07 18:02 21.82662 106.35982 18166 ft 436 kts 222°
2026-05-07 18:02 21.80401 106.33822 17366 ft 432 kts 223°
2026-05-07 18:03 21.78163 106.31687 16627 ft 428 kts 223°
2026-05-07 18:03 21.75971 106.29598 15900 ft 424 kts 222°
2026-05-07 18:03 21.73781 106.27494 15145 ft 420 kts 224°
2026-05-07 18:03 21.71775 106.25237 14485 ft 415 kts 229°
2026-05-07 18:04 21.69888 106.22934 14110 ft 407 kts 230°
2026-05-07 18:04 21.68024 106.20645 13980 ft 408 kts 230°
2026-05-07 18:04 21.66151 106.18350 13958 ft 404 kts 229°
2026-05-07 18:04 21.64349 106.16147 13960 ft 381 kts 229°
2026-05-07 18:05 21.62654 106.14062 13964 ft 359 kts 230°
2026-05-07 18:05 21.61402 106.11845 13965 ft 337 kts 251°
2026-05-07 18:05 21.61126 106.09436 13969 ft 317 kts 277°
2026-05-07 18:05 21.61775 106.07232 13965 ft 309 kts 300°
2026-05-07 18:06 21.63070 106.05387 13961 ft 309 kts 310°
2026-05-07 18:06 21.64489 106.03631 13955 ft 311 kts 311°
2026-05-07 18:06 21.65905 106.01876 13954 ft 312 kts 310°
2026-05-07 18:06 21.67290 106.00124 13958 ft 311 kts 309°
2026-05-07 18:07 21.68395 105.98124 13967 ft 312 kts 292°
2026-05-07 18:07 21.69106 105.95919 13961 ft 312 kts 288°
2026-05-07 18:07 21.69739 105.93688 13959 ft 312 kts 287°
2026-05-07 18:07 21.70371 105.91454 13960 ft 312 kts 287°
2026-05-07 18:08 21.71007 105.89219 13961 ft 312 kts 287°
2026-05-07 18:08 21.71645 105.86977 13959 ft 312 kts 287°
2026-05-07 18:08 21.72016 105.84706 13961 ft 313 kts 271°
2026-05-07 18:08 21.71905 105.82371 13961 ft 313 kts 265°
2026-05-07 18:09 21.71673 105.80036 13958 ft 313 kts 264°
2026-05-07 18:09 21.71433 105.77709 13960 ft 313 kts 264°
2026-05-07 18:09 21.71197 105.75372 13960 ft 313 kts 264°
2026-05-07 18:09 21.70961 105.73037 13960 ft 313 kts 264°
2026-05-07 18:10 21.70457 105.70762 13959 ft 315 kts 248°
2026-05-07 18:10 21.69352 105.68737 13908 ft 315 kts 236°
2026-05-07 18:10 21.68061 105.66837 13716 ft 314 kts 234°
2026-05-07 18:10 21.66755 105.64960 13468 ft 313 kts 234°
2026-05-07 18:11 21.65457 105.63086 13207 ft 312 kts 234°
2026-05-07 18:11 21.64601 105.61843 13049 ft 312 kts 234°
2026-05-07 18:11 21.62895 105.59361 12714 ft 310 kts 234°
2026-05-07 18:11 21.61618 105.57497 12479 ft 309 kts 234°
2026-05-07 18:12 21.60346 105.55640 12230 ft 306 kts 234°
2026-05-07 18:12 21.59103 105.53825 12035 ft 298 kts 234°
2026-05-07 18:12 21.57881 105.52041 11742 ft 295 kts 234°
2026-05-07 18:12 21.56670 105.50274 11409 ft 293 kts 234°
2026-05-07 18:13 21.55461 105.48508 11068 ft 292 kts 234°
2026-05-07 18:13 21.54259 105.46752 10731 ft 291 kts 234°
2026-05-07 18:13 21.53063 105.45007 10389 ft 290 kts 234°
2026-05-07 18:13 21.51870 105.43266 10051 ft 289 kts 234°
2026-05-07 18:14 21.50695 105.41552 9710 ft 289 kts 234°
2026-05-07 18:14 21.49474 105.39772 9345 ft 294 kts 234°
2026-05-07 18:14 21.48261 105.38003 9006 ft 294 kts 234°
2026-05-07 18:14 21.47064 105.36260 8669 ft 293 kts 233°
2026-05-07 18:15 21.45698 105.34643 8317 ft 293 kts 218°
2026-05-07 18:15 21.43899 105.33661 7985 ft 290 kts 198°
2026-05-07 18:15 21.41980 105.33022 7657 ft 288 kts 195°
2026-05-07 18:15 21.40050 105.32442 7345 ft 287 kts 192°
2026-05-07 18:16 21.38077 105.32337 7020 ft 284 kts 169°
2026-05-07 18:16 21.36262 105.33127 6512 ft 284 kts 143°
2026-05-07 18:16 21.34980 105.34729 5869 ft 287 kts 116°
2026-05-07 18:16 21.34366 105.36775 5209 ft 291 kts 104°
2026-05-07 18:17 21.33834 105.38882 4554 ft 295 kts 105°
2026-05-07 18:17 21.33264 105.40995 4060 ft 292 kts 106°
2026-05-07 18:17 21.32700 105.43013 3999 ft 273 kts 106°
2026-05-07 18:17 21.32170 105.44890 4003 ft 253 kts 106°
2026-05-07 18:18 21.31681 105.46612 4005 ft 235 kts 107°
2026-05-07 18:18 21.31345 105.48254 4007 ft 217 kts 97°
2026-05-07 18:18 21.31073 105.49817 4001 ft 211 kts 104°
2026-05-07 18:18 21.30646 105.51304 3996 ft 211 kts 107°
2026-05-07 18:19 21.30204 105.52806 3995 ft 212 kts 107°
2026-05-07 18:19 21.29754 105.54308 3996 ft 212 kts 107°
2026-05-07 18:19 21.29283 105.55807 3994 ft 212 kts 108°
2026-05-07 18:19 21.28825 105.57309 3992 ft 212 kts 106°
2026-05-07 18:20 21.28403 105.58823 3916 ft 211 kts 106°
2026-05-07 18:20 21.27979 105.60316 3677 ft 208 kts 107°
2026-05-07 18:20 21.27554 105.61784 3387 ft 205 kts 107°
2026-05-07 18:20 21.27136 105.63240 3053 ft 205 kts 107°
2026-05-07 18:21 21.26720 105.64689 2761 ft 202 kts 108°
2026-05-07 18:21 21.26308 105.66119 2506 ft 197 kts 107°
2026-05-07 18:21 21.25912 105.67495 2252 ft 188 kts 107°
2026-05-07 18:21 21.25541 105.68782 2019 ft 174 kts 107°
2026-05-07 18:22 21.25194 105.69989 1792 ft 164 kts 106°
2026-05-07 18:22 21.25083 105.70377 1713 ft 159 kts 106°
2026-05-07 18:22 21.24575 105.72143 1390 ft 140 kts 106°
2026-05-07 18:22 21.24296 105.73111 1221 ft 132 kts 106°
2026-05-07 18:23 21.24030 105.74035 1060 ft 131 kts 105°
2026-05-07 18:23 21.23762 105.74971 879 ft 130 kts 104°
2026-05-07 18:23 21.23483 105.75912 731 ft 135 kts 105°
2026-05-07 18:23 21.23200 105.76872 477 ft 133 kts 104°
2026-05-07 18:24 21.22918 105.77822 358 ft 135 kts 101°
2026-05-07 18:24 21.22660 105.78780 199 ft 133 kts 102°
2026-05-07 18:24 21.22384 105.79728 49 ft 131 kts 102°
2026-05-07 18:24 21.22160 105.80528 55 ft 90 kts 108°
2026-05-07 18:25 21.22021 105.81004 49 ft 44 kts 108°
2026-05-07 18:25 21.21952 105.81239 50 ft 22 kts 107°
2026-05-07 18:25 21.21919 105.81356 52 ft 17 kts 107°
2026-05-07 18:25 21.21883 105.81484 50 ft 19 kts 107°
2026-05-07 18:26 21.21843 105.81630 51 ft 22 kts 107°
2026-05-07 18:26 21.21808 105.81742 49 ft 13 kts 109°
2026-05-07 18:26 21.21776 105.81849 51 ft 22 kts 107°
2026-05-07 18:26 21.21724 105.82029 50 ft 24 kts 107°
2026-05-07 18:27 21.21667 105.82173 49 ft 16 kts 153°
2026-05-07 18:27 21.21554 105.82153 48 ft 16 kts 199°
2026-05-07 18:27 21.21485 105.82117 50 ft 17 kts 223°
2026-05-07 18:27 21.21413 105.82003 48 ft 20 kts 239°
2026-05-07 18:28 21.21375 105.81851 50 ft 23 kts 268°
2026-05-07 18:28 21.21417 105.81684 51 ft 24 kts 287°
2026-05-07 18:28 21.21469 105.81504 56 ft 21 kts 287°
2026-05-07 18:28 21.21517 105.81343 49 ft 24 kts 288°
2026-05-07 18:29 21.21584 105.81107 55 ft 20 kts 286°
2026-05-07 18:29 21.21612 105.81005 53 ft 22 kts 286°
2026-05-07 18:29 21.21659 105.80841 50 ft 24 kts 288°
2026-05-07 18:29 21.21713 105.80664 51 ft 27 kts 288°
2026-05-07 18:30 21.21770 105.80466 55 ft 28 kts 285°
2026-05-07 18:30 21.21816 105.80296 51 ft 23 kts 288°
2026-05-07 18:30 21.21855 105.80155 51 ft 20 kts 286°
2026-05-07 18:30 21.21896 105.80012 51 ft 21 kts 287°
2026-05-07 18:31 21.21943 105.79853 51 ft 24 kts 288°
2026-05-07 18:31 21.21986 105.79701 52 ft 20 kts 287°
2026-05-07 18:31 21.22009 105.79571 50 ft 11 kts 238°
2026-05-07 18:31 21.21957 105.79516 49 ft 11 kts 256°
2026-05-07 18:32 21.21967 105.79453 53 ft 7 kts 285°
2026-05-07 18:32 21.21963 105.79399 47 ft 8 kts 230°
2026-05-07 18:32 21.21919 105.79377 48 ft 0 kts 197°
2026-05-07 18:32 21.21910 105.79374 50 ft 4 kts 197°
2026-05-07 18:33 21.21894 105.79369 53 ft 0 kts 197°
2026-05-07 18:33 21.21891 105.79368 53 ft 0 kts 197°